Elrosa, MN (56325)

7:05 AM CST on February 26, 2017 (GMT -0600)
Sauk Centre | | Change Station

Elev 1243 ft 45.71 °N, 94.93 °W | Updated 14 minutes ago

Overcast
Overcast
26 °F
Feels Like 17 °F
N
9
Wind Variable Wind from WSW

Today
High -- | Low -- °F
--% Chance of Precip.
Yesterday
High -- | Low -- °F
Precip. -- in
Pressure 29.68 in
Visibility 10.0 miles
Clouds Overcast 3400 ft
Windchill 17 °F
Dew Point 24 °F
Humidity 90%
Rainfall 0.00 in
Snow Depth Not available.
7:02 AM 6:02 PM
Waning Crescent, 0% visible
METAR KD39 261251Z AUTO 25008KT 10SM OVC034 M03/M04 A2968 RMK AO2 T10311045
Pressure 29.68 in
Visibility 10.0 miles
Clouds Overcast 3400 ft
Windchill 17 °F
Dew Point 24 °F
Humidity 90%
Rainfall 0.00 in
Snow Depth Not available.
7:02 AM 6:02 PM
Waning Crescent, 0% visible
METAR KD39 261251Z AUTO 25008KT 10SM OVC034 M03/M04 A2968 RMK AO2 T10311045

Get Your Daily Forecast Email!

Thanks for signing up!

Be on the lookout for a verification email in your inbox.

You'll start receiving the daily forecast at 8 AM.

×

10-Day Weather Forecast

Almanac

Astronomy

Feb. 26, 2017 Rise Set
Actual Time
Civil Twilight
Nautical Twilight
Astronomical Twilight
Moon
Length of Visible Light
Length of Day
Tomorrow will be .
, % of the Moon is Illuminated

Today's Extremes

State Highs State Lows

Community

WunderPhotos

Upload Photos

1,962,540 photos uploaded!

WunderBlog® & News

Nearby

Air Quality

  Air Quality AQ Index Pollutant
Not available.

Snow Depth

Station Depth Elevation

Earthquake Activity

City Distance Mag. Time & Date
Minimum magnitude displayed is 2.5.

Coastal Water Temperatures

Place Temperature

Stations

Nearby Weather Stations

Station Location Temp. Windchill Dew Point Humidity Wind Precip. Elev Updated Type
                   

Watches & Warnings

There are currently no watches in effect.